(89797) = 1999 JW130 = 2002 AW133

Discovered at Socorro on 2002-01-09 by LINEAR.

Orbit

Orbit type: Main Belt

Note: WebGL enabled browser required.

epoch2024-03-31.0
epoch JD2460400.5
perihelion date2022-04-24.87246
perihelion JD2459694.37246
argument of perihelion (°)320.78069
ascending node (°)127.34691
inclination (°)3.67956
eccentricity0.0412434
perihelion distance (AU)2.4527694
Tisserand w.r.t. Jupiter3.4
ΔV w.r.t. Earth (km/sec)9.8
semimajor axis (AU)2.5582817
mean anomaly (°)170.08438
mean daily motion (°/day)0.24086920
aphelion distance (AU)2.664
period (years)4.09
P-vector [x]0.03163752
P-vector [y]0.93240775
P-vector [z]0.36002064
Q-vector [x]-0.99819646
Q-vector [y]0.01108920
Q-vector [z]0.05899885
absolute magnitude15.97
phase slope0.15
uncertainty0
referenceMPEC 2024-C181
observations used916
oppositions19
arc length (days)9268
first opposition used1998
last opposition used2023
residual rms (arc-secs)0.75
perturbers coarse indicatorM-v
perturbers precise indicator003Ek
first observation date used1998-01-22.0
last observation date used2023-06-08.0
computer nameMPCLINUX
JD of orbit computation2456760.789981
perihelion JD uncertainty (days)2.6529E-04
argument of perihelion uncertainty (°)1.2063E-04
ascending node uncertainty (°)1.0142E-04
inclination uncertainty (°)5.1316E-06
eccentricity uncertainty 6.5718E-08
perihelion distance uncertainty (AU)1.7335E-07
Minimum Orbit Intersection Distances (in AU)
for orbit epoch: 2460400.5, reference: E2024-CI1
Mercury2.1454
Venus1.73429
Earth1.47099
Mars0.83057
Jupiter2.40155
Saturn6.59026
Uranus15.9025
Neptune27.3182

Observations

971 total observations over interval: 1998 01 22.15648 – 2023 06 08.184746
These data are available for download (format description).

Date (UT) J2000 RA J2000 Dec Magn Location Ref
1998 01 22.15648 07 40 24.11 +20 17 24.1 18.9 V 691 – Steward Observatory, Kitt Peak-Spacewatch MPS 52522
1998 01 22.17890 07 40 22.74 +20 17 30.5 19.0 V 691 – Steward Observatory, Kitt Peak-Spacewatch MPS 52522
1998 01 22.20130 07 40 21.75 +20 17 37.2 18.2 V 691 – Steward Observatory, Kitt Peak-Spacewatch MPS 52522
1999 05 13.30133 15 23 13.13 -12 37 55.0 19.4   704 – Lincoln Laboratory ETS, New Mexico MPS 5220
1999 05 13.31631 15 23 12.20 -12 37 54.4 19.4   704 – Lincoln Laboratory ETS, New Mexico MPS 5220
1999 05 13.33135 15 23 11.43 -12 37 49.8 19.2   704 – Lincoln Laboratory ETS, New Mexico MPS 5220
1999 05 13.36133 15 23 09.61 -12 37 44.7 19.7   704 – Lincoln Laboratory ETS, New Mexico MPS 5220
1999 05 18.24075 15 18 39.75 -12 22 48.8 19.2   704 – Lincoln Laboratory ETS, New Mexico MPS 5220
1999 05 18.25475 15 18 38.85 -12 22 44.1 19.3   704 – Lincoln Laboratory ETS, New Mexico MPS 5220
1999 05 18.26878 15 18 38.23 -12 22 44.3 19.5   704 – Lincoln Laboratory ETS, New Mexico MPS 5220
2001 12 09.32078 07 20 28.27 +19 10 37.3 19.9 V 691 – Steward Observatory, Kitt Peak-Spacewatch MPS 49976
2001 12 09.34335 07 20 27.40 +19 10 39.8 19.8 V 691 – Steward Observatory, Kitt Peak-Spacewatch MPS 49976
2001 12 09.36572 07 20 26.50 +19 10 42.2 19.9 V 691 – Steward Observatory, Kitt Peak-Spacewatch MPS 49976
2001 12 13.98977 07 17 18.97 +19 19 51.6 19.3 R 012 – Uccle MPS 49976
2001 12 13.99345 07 17 18.78 +19 19 51.8 19.0 R 012 – Uccle MPS 49976
2001 12 14.00007 07 17 18.53 +19 19 52.7 18.6 R 012 – Uccle MPS 49976
2001 12 14.01146 07 17 18.07 +19 19 53.8 18.9 R 012 – Uccle MPS 49976
2001 12 14.01633 07 17 17.74 +19 19 56.2 19.9 R 012 – Uccle MPS 49976
2001 12 14.02119 07 17 17.52 +19 19 54.7 19.4 R 012 – Uccle MPS 49976
2001 12 14.02605 07 17 17.38 +19 19 57.0 19.9 R 012 – Uccle MPS 49976
2001 12 14.03161 07 17 17.08 +19 19 56.3 18.7 R 012 – Uccle MPS 49976
2001 12 14.37516 07 17 01.70 +19 20 44.2 19.4   704 – Lincoln Laboratory ETS, New Mexico MPS 49976
2001 12 14.39037 07 17 00.99 +19 20 45.3 19.8   704 – Lincoln Laboratory ETS, New Mexico MPS 49976
2001 12 14.40557 07 17 00.30 +19 20 47.7 19.5   704 – Lincoln Laboratory ETS, New Mexico MPS 49976
2001 12 14.43598 07 16 58.86 +19 20 51.2 19.7   704 – Lincoln Laboratory ETS, New Mexico MPS 49976
2001 12 17.31856 07 14 43.60 +19 27 27.2 19.2   644 – Palomar Mountain/NEAT MPS 49976
2001 12 17.33490 07 14 42.77 +19 27 29.6 19.8   644 – Palomar Mountain/NEAT MPS 49976
2001 12 17.35887 07 14 41.56 +19 27 33.0 19.5   644 – Palomar Mountain/NEAT MPS 49976
2001 12 20.30617 07 12 11.35 +19 34 48.6 19.2   704 – Lincoln Laboratory ETS, New Mexico MPS 49976
2001 12 20.32139 07 12 10.52 +19 34 52.1 19.5   704 – Lincoln Laboratory ETS, New Mexico MPS 49977
2001 12 20.33645 07 12 09.68 +19 34 53.5 19.6   704 – Lincoln Laboratory ETS, New Mexico MPS 49977
2001 12 20.35202 07 12 08.90 +19 34 56.7 19.4   704 – Lincoln Laboratory ETS, New Mexico MPS 49977
2001 12 20.36711 07 12 07.98 +19 34 58.8 19.7   704 – Lincoln Laboratory ETS, New Mexico MPS 49977
2002 01 09.26149 06 52 25.19 +20 32 05.4 18.8   704 – Lincoln Laboratory ETS, New Mexico MPS 47485
2002 01 09.27663 06 52 24.30 +20 32 08.0 18.7   704 – Lincoln Laboratory ETS, New Mexico MPS 47485
2002 01 09.29174 06 52 23.39 +20 32 10.5 19.1   704 – Lincoln Laboratory ETS, New Mexico MPS 47485
2002 01 09.30687 06 52 22.42 +20 32 13.7 18.9   704 – Lincoln Laboratory ETS, New Mexico MPS 47485
2002 01 09.32353 06 52 21.38 +20 32 15.8 19.1   704 – Lincoln Laboratory ETS, New Mexico MPS 47485
2002 01 15.24130 06 46 31.60 +20 49 40.0 18.6   704 – Lincoln Laboratory ETS, New Mexico MPS 47485
2002 01 15.25647 06 46 30.69 +20 49 42.6 18.9   704 – Lincoln Laboratory ETS, New Mexico MPS 47485
2002 01 15.27165 06 46 29.78 +20 49 45.8 18.9   704 – Lincoln Laboratory ETS, New Mexico MPS 47485
2002 01 15.28683 06 46 28.90 +20 49 47.9 18.8   704 – Lincoln Laboratory ETS, New Mexico MPS 47485
2002 01 15.30201 06 46 27.99 +20 49 50.4 18.9   704 – Lincoln Laboratory ETS, New Mexico MPS 47485
2003 03 26.46604 15 09 30.42 -12 09 54.7 20.7 V 291 – LPL/Spacewatch II MPS 76128
2003 03 26.49037 15 09 29.98 -12 09 50.5 20.5 V 291 – LPL/Spacewatch II MPS 76128
2003 03 26.51427 15 09 29.58 -12 09 46.2 21.0 V 291 – LPL/Spacewatch II MPS 76128
2003 03 31.43350 15 07 51.03 -11 54 31.1 19.7 V 691 – Steward Observatory, Kitt Peak-Spacewatch MPS 76128
2003 03 31.46337 15 07 50.28 -11 54 24.9 19.5 V 691 – Steward Observatory, Kitt Peak-Spacewatch MPS 76128
2003 03 31.49358 15 07 49.53 -11 54 19.3 19.5 V 691 – Steward Observatory, Kitt Peak-Spacewatch MPS 76128
2003 05 01.30091 14 45 50.05 -09 48 27.4   704 – Lincoln Laboratory ETS, New Mexico MPS 406607
2003 05 01.31269 14 45 49.33 -09 48 25.6   704 – Lincoln Laboratory ETS, New Mexico MPS 406607
2003 05 05.26977 14 42 14.75 -09 32 08.5 18.6   704 – Lincoln Laboratory ETS, New Mexico MPS 78239
2003 05 05.28207 14 42 14.13 -09 32 06.5 19.2   704 – Lincoln Laboratory ETS, New Mexico MPS 78239
2003 05 05.28536 14 42 13.89 -09 32 06.8 18.9 R 699 – Lowell Observatory-LONEOS MPS 78239
2003 05 05.29444 14 42 13.44 -09 32 04.0 19.5   704 – Lincoln Laboratory ETS, New Mexico MPS 78239
2003 05 05.30394 14 42 12.77 -09 32 01.1   699 – Lowell Observatory-LONEOS MPS 78239
2003 05 05.30673 14 42 12.74 -09 32 00.2 19.3   704 – Lincoln Laboratory ETS, New Mexico MPS 78239
2003 05 05.31920 14 42 12.04 -09 31 57.1 19.1   704 – Lincoln Laboratory ETS, New Mexico MPS 78239
2003 05 05.32256 14 42 11.89 -09 31 56.7   699 – Lowell Observatory-LONEOS MPS 78239
2003 05 05.34131 14 42 10.82 -09 31 51.6   699 – Lowell Observatory-LONEOS MPS 78239
2003 05 11.24264 14 36 55.94 -09 09 33.5 19.6 V 691 – Steward Observatory, Kitt Peak-Spacewatch MPS 80044
2003 05 11.26880 14 36 54.53 -09 09 28.0 19.7 V 691 – Steward Observatory, Kitt Peak-Spacewatch MPS 80044
2003 05 11.29505 14 36 53.12 -09 09 22.4 19.7 V 691 – Steward Observatory, Kitt Peak-Spacewatch MPS 80044
2003 06 01.26363 14 21 45.41 -08 20 15.4 20.5 V 691 – Steward Observatory, Kitt Peak-Spacewatch MPS 80044
2003 06 01.29290 14 21 44.45 -08 20 14.2 20.5 V 691 – Steward Observatory, Kitt Peak-Spacewatch MPS 80044
2003 06 01.31985 14 21 43.58 -08 20 12.5 20.9 V 691 – Steward Observatory, Kitt Peak-Spacewatch MPS 80044
2004 07 23.07005 22 28 49.11 -11 04 01.1   J95 – Great Shefford MPS 110732
2004 07 23.09759 22 28 48.56 -11 04 08.4 20.4 R J95 – Great Shefford MPS 110732
2004 07 28.05994 22 26 24.02 -11 27 01.6 19.5 R J95 – Great Shefford MPS 110685
2004 07 28.07493 22 26 23.50 -11 27 06.2 20.0 R J95 – Great Shefford MPS 110685
2004 08 12.21268 22 16 02.36 -12 52 33.9 19.8   704 – Lincoln Laboratory ETS, New Mexico MPS 111091
2004 08 12.23228 22 16 01.39 -12 52 41.7 20.2   704 – Lincoln Laboratory ETS, New Mexico MPS 111091
2004 08 12.24221 22 16 00.90 -12 52 45.4 19.8   704 – Lincoln Laboratory ETS, New Mexico MPS 111091
2004 09 09.18520 21 52 55.40 -15 34 11.8 19.2   704 – Lincoln Laboratory ETS, New Mexico MPS 113345
2004 09 09.19636 21 52 54.95 -15 34 12.7 19.6   704 – Lincoln Laboratory ETS, New Mexico MPS 113345
2004 09 09.20752 21 52 54.38 -15 34 17.7 19.3   704 – Lincoln Laboratory ETS, New Mexico MPS 113345
2004 09 09.21930 21 52 53.81 -15 34 20.2 19.5   704 – Lincoln Laboratory ETS, New Mexico MPS 113345
2004 09 10.22700 21 52 11.05 -15 38 55.1 19.0   704 – Lincoln Laboratory ETS, New Mexico MPS 114022
2004 09 10.23849 21 52 10.52 -15 38 58.5 19.4   704 – Lincoln Laboratory ETS, New Mexico MPS 114022
2004 09 10.24993 21 52 10.11 -15 39 01.3 19.5   704 – Lincoln Laboratory ETS, New Mexico MPS 114022
2004 09 10.25418 21 52 09.89 -15 39 02.7 19.6   704 – Lincoln Laboratory ETS, New Mexico MPS 114022
2004 09 10.26208 21 52 09.62 -15 39 04.4 19.2   704 – Lincoln Laboratory ETS, New Mexico MPS 114022
2004 09 10.26613 21 52 09.37 -15 39 05.0 19.1   704 – Lincoln Laboratory ETS, New Mexico MPS 114022
2004 09 10.27353 21 52 08.98 -15 39 06.5 19.2   704 – Lincoln Laboratory ETS, New Mexico MPS 114022
2004 09 10.27841 21 52 08.83 -15 39 08.4 19.7   704 – Lincoln Laboratory ETS, New Mexico MPS 114022
2005 11 30.31972 06 29 16.13 +19 22 32.7 19.5 V 691 – Steward Observatory, Kitt Peak-Spacewatch MPS 153181
